"Pseudo-MPEC" for P11DBYo

Created 2023 Mar 26 5:22:09 UT using Find_Orb

Click here for an explanation of pseudo-MPECs

 
 Astrometry: 
     P11DBYo* C2023 03 18sc2S._--Y0^['TcaETO*:dE9y$@HvSZIql#YAstrometryQ0gdtKF51
     P11DBYo  C2023 03 18!Zcredacted;%rlc20bL0fFXS8f$+C^6-KU'PU\drxijD-WclickF51
     P11DBYo  C2023 03 18UI)eherejfor)C,\[La@IEWVJ27TAs?explanationmLb^pI;KsxF51

Station data:
(F51) Pan-STARRS 1, Haleakala  (N20.707234 W156.255910)  US/Hawaii.
   Observers J. Bulger, T. Lowe, A. Schultz, M. Willman. Measurers K.
   Chambers, S. Chastel, T. de Boer, L. Denneau, J. Fairlamb, H. Flewelling,
   M. Huber, C.-C. Lin, E. Magnier, Y. Ramanjooloo, R. Wainscoat, R. Weryk.
   1.8-m Ritchey-Chrétien + CCD.

Orbital elements:  P11DBYo
   Perihelion 2022 Apr 9.59875 +/- 300 TT = 14:22:11 (JD 2459679.09875)
Epoch 2023 Mar 18.0 TT = JDT 2460021.5   Earth MOID: 0.6997      AutoNEOCP
M 139.00425825 +/- 100              (J2000 ecliptic)
n   0.40596889 +/- 0.239            Peri.  330.95036 +/- 70
a   1.80637346 +/- 0.71             Node    57.26740 +/- 50
e   0.0701247 +/- 0.256             Incl.   19.98879 +/- 31
P   2.43/886.75d           H 20.05  G  0.15   U 11.8  SR
q 1.67970201 +/- 0.933    Q 1.93304491 +/- 33.8
From 3 observations 2023 Mar. 18 (32.6 min); mean residual 0".06
Residuals in arcseconds: 
230318 F51  .01-  .05+    230318 F51  .02+  .11-    230318 F51  .01-  .05+    

Ephemerides (geocentric):
Date (UTC) HH   RA             Dec           delta  r     elong  mag " sig PA
---- --------  ------------   ------------  ------ ------ -----  --- --------
2023 03 26 05  12 14 33.193   +36 18 01.64  1.0241 1.9097 141.7 22.5 197'   7
2023 03 26 06  12 14 29.147   +36 17 52.00  1.0242 1.9097 141.7 22.5 205'   6
2023 03 26 07  12 14 25.101   +36 17 42.29  1.0243 1.9097 141.7 22.5 215'   6
2023 03 26 08  12 14 21.057   +36 17 32.53  1.0244 1.9098 141.7 22.5 226'   5
2023 03 26 09  12 14 17.014   +36 17 22.70  1.0245 1.9098 141.7 22.5 239'   3
2023 03 26 10  12 14 12.972   +36 17 12.81  1.0246 1.9098 141.6 22.5 256' 179
2023 03 26 11  12 14 08.931   +36 17 02.86  1.0247 1.9098 141.6 22.5 283' 172
2023 03 26 12  12 14 04.892   +36 16 52.84  1.0248 1.9098 141.6 22.5 335' 160
2023 03 26 13  12 14 00.854   +36 16 42.77  1.0249 1.9099 141.6 22.5 439' 147
2023 03 26 14  12 13 56.817   +36 16 32.63  1.0250 1.9099 141.6 22.5 592' 142
2023 03 26 15  12 13 52.782   +36 16 22.43  1.0251 1.9099 141.6 22.5 728' 144
2023 03 26 16  12 13 48.748   +36 16 12.17  1.0252 1.9099 141.6 22.5 815' 147
2023 03 26 17  12 13 44.716   +36 16 01.84  1.0253 1.9099 141.5 22.5 867' 149
2023 03 26 18  12 13 40.684   +36 15 51.46  1.0254 1.9100 141.5 22.5 899' 151
2023 03 26 19  12 13 36.655   +36 15 41.01  1.0255 1.9100 141.5 22.5 921' 153
2023 03 26 20  12 13 32.626   +36 15 30.50  1.0256 1.9100 141.5 22.5 936' 154
2023 03 26 21  12 13 28.599   +36 15 19.93  1.0257 1.9100 141.5 22.5 949' 155
2023 03 26 22  12 13 24.573   +36 15 09.29  1.0258 1.9100 141.5 22.5 959' 156
2023 03 26 23  12 13 20.549   +36 14 58.60  1.0259 1.9101 141.4 22.5 968' 157
2023 03 27 00  12 13 16.526   +36 14 47.84  1.0260 1.9101 141.4 22.5 976' 158
2023 03 27 01  12 13 12.505   +36 14 37.02  1.0261 1.9101 141.4 22.5 983' 158
2023 03 27 02  12 13 08.485   +36 14 26.14  1.0263 1.9101 141.4 22.5 990' 159
2023 03 27 03  12 13 04.466   +36 14 15.19  1.0264 1.9102 141.4 22.5 997' 160
2023 03 27 04  12 13 00.449   +36 14 04.19  1.0265 1.9102 141.4 22.5  17d 161
2023 03 27 05  12 12 56.434   +36 13 53.12  1.0266 1.9102 141.3 22.5  17d 162
2023 03 27 06  12 12 52.420   +36 13 41.99  1.0267 1.9102 141.3 22.5  17d 164
2023 03 27 07  12 12 48.407   +36 13 30.80  1.0268 1.9102 141.3 22.5  17d 165
2023 03 27 08  12 12 44.396   +36 13 19.55  1.0269 1.9103 141.3 22.5  17d 166
2023 03 27 09  12 12 40.386   +36 13 08.24  1.0270 1.9103 141.3 22.5  17d 167
2023 03 27 10  12 12 36.378   +36 12 56.86  1.0271 1.9103 141.3 22.5  18d 168
2023 03 27 11  12 12 32.372   +36 12 45.42  1.0272 1.9103 141.3 22.5  18d 169
2023 03 27 12  12 12 28.367   +36 12 33.92  1.0274 1.9103 141.2 22.5  18d 170
2023 03 27 13  12 12 24.364   +36 12 22.36  1.0275 1.9104 141.2 22.5  18d 171
2023 03 27 14  12 12 20.362   +36 12 10.74  1.0276 1.9104 141.2 22.5  18d 172
2023 03 27 15  12 12 16.362   +36 11 59.06  1.0277 1.9104 141.2 22.5  18d 173
2023 03 27 16  12 12 12.363   +36 11 47.31  1.0278 1.9104 141.2 22.5  18d 173
2023 03 27 17  12 12 08.366   +36 11 35.50  1.0279 1.9104 141.2 22.5  18d 174
2023 03 27 18  12 12 04.371   +36 11 23.64  1.0280 1.9105 141.1 22.5  19d 175
2023 03 27 19  12 12 00.377   +36 11 11.71  1.0281 1.9105 141.1 22.5  19d 175
2023 03 27 20  12 11 56.385   +36 10 59.72  1.0282 1.9105 141.1 22.5  19d 176
2023 03 27 21  12 11 52.395   +36 10 47.66  1.0284 1.9105 141.1 22.5  19d 176
2023 03 27 22  12 11 48.406   +36 10 35.55  1.0285 1.9105 141.1 22.5  19d 177
2023 03 27 23  12 11 44.419   +36 10 23.37  1.0286 1.9106 141.1 22.5  19d 177
2023 03 28 00  12 11 40.433   +36 10 11.14  1.0287 1.9106 141.0 22.5  19d 177
2023 03 28 01  12 11 36.450   +36 09 58.84  1.0288 1.9106 141.0 22.5  19d 178
2023 03 28 02  12 11 32.468   +36 09 46.48  1.0289 1.9106 141.0 22.5  19d 178
2023 03 28 03  12 11 28.487   +36 09 34.06  1.0291 1.9106 141.0 22.5  20d 178
2023 03 28 04  12 11 24.509   +36 09 21.58  1.0292 1.9107 141.0 22.5  20d 178